Flag for Australia Weather past 2 weeks in Cairns, Queensland, Australia

Now
68 °F

Sprinkles. Overcast.


Feels Like: 68 °F
Forecast: 69 / 80 °F
Wind: 14 mph from South

Location: Cairns Airport

Current Time: Jul 26, 2014 at 2:09:13 AM

Latest Report: Jul 26, 2014 at 2:00 AM


Visibility: N/A

Pressure: 30.12 "Hg

Humidity: 88%

Dew point: 64 °F

Location of CairnsLocation

Historic Weather in Cairns — Graph

°F

Cairns temperature yesterday

Maximum temperature yesterday: 79 °F (at 1:30 PM)
Minimum temperature yesterday: 66 °F (at 4:30 AM)
Average temperature yesterday: 72 °F

Past Weeks' High & Low Weather Summary

 TemperatureHumidityPressure
High82 °F (Jul 17, 12:00 PM)100% (Jul 18, 1:00 AM)30.18 "Hg (Jul 18, 1:00 AM)
Low52 °F (Jul 19, 3:00 AM)24% (Jul 18, 2:00 PM)29.95 "Hg (Jul 23, 3:00 PM)
Average69 °F67%30.05 "Hg
* Reported Jul 11 1:00 AM — Jul 26 1:00 AM, Cairns, Weather by CustomWeather, © 2014

Note: Actual official high and low records may vary slightly from our data, if they occured in-between our weather recording intervals... More about our weather records

Advertising

Cairns weather history for previous 24 hours

 ConditionsComfort  
Time TempWeatherWind HumidityBarometerVisibility
1:00 AM
Jul 26
68 °FOvercast.13 mph88%30.15 "HgN/A
12:30 AM70 °FOvercast.13 mph83%30.15 "HgN/A
12:00 AM70 °FPassing clouds.10 mph83%30.15 "HgN/A
11:00 PM
Jul 25
70 °FPassing clouds.12 mph83%30.18 "HgN/A
10:30 PM70 °FPassing clouds.10 mph83%30.18 "HgN/A
10:00 PM70 °FPassing clouds.8 mph88%30.18 "HgN/A
9:30 PM68 °FScattered showers. Passing clouds.8 mph88%30.18 "HgN/A
9:00 PM70 °FSprinkles. Passing clouds.10 mph78%30.15 "HgN/A
8:30 PM72 °FPassing clouds.10 mph73%30.15 "HgN/A
8:00 PM72 °FPassing clouds.9 mph73%30.15 "HgN/A
7:30 PM72 °FPassing clouds.10 mph73%30.12 "HgN/A
7:00 PM72 °FPassing clouds.8 mph73%30.12 "HgN/A
6:30 PM72 °FPassing clouds.9 mph78%30.09 "HgN/A
6:00 PM73 °FPartly sunny.9 mph69%30.09 "HgN/A
5:30 PM73 °FPartly sunny.8 mph74%30.09 "HgN/A
5:00 PM73 °FScattered showers. Broken clouds.10 mph69%30.09 "HgN/A
4:00 PM77 °FScattered showers. Broken clouds.13 mph61%30.07 "HgN/A
3:30 PM77 °FScattered showers. Broken clouds.15 mph57%30.07 "HgN/A
3:00 PM79 °FPartly sunny.14 mph54%30.07 "HgN/A
2:30 PM79 °FScattered clouds.14 mph58%30.07 "HgN/A
2:00 PM77 °FBroken clouds.13 mph65%30.07 "HgN/A
1:30 PM79 °FScattered showers. Partly sunny.16 mph58%30.09 "HgN/A
1:00 PM77 °FScattered clouds.14 mph61%30.09 "HgN/A
12:00 PM77 °FScattered clouds.10 mph61%30.12 "HgN/A
11:30 AM73 °FScattered showers. Broken clouds.10 mph83%30.12 "HgN/A
11:00 AM75 °FMixture of precip. Scattered clouds.10 mph78%30.12 "HgN/A
10:00 AM75 °FScattered showers. Broken clouds.10 mph78%30.12 "HgN/A
9:30 AM73 °FBroken clouds.10 mph78%30.12 "HgN/A
9:00 AM72 °FBroken clouds.8 mph83%30.12 "HgN/A
8:30 AM68 °FSprinkles. Broken clouds.9 mph94%30.12 "Hg4 mi
8:00 AM70 °FScattered showers. Broken clouds.7 mph88%30.09 "HgN/A
7:30 AM68 °FScattered showers. Broken clouds.7 mph94%30.09 "HgN/A
7:00 AM68 °FSprinkles. Broken clouds.10 mph94%30.09 "Hg4 mi
6:50 AM68 °FSprinkles. Broken clouds.12 mph94%30.09 "Hg5 mi
6:00 AM70 °FScattered showers. Passing clouds.10 mph83%30.07 "HgN/A
5:30 AM68 °FScattered showers. Passing clouds.10 mph88%30.07 "HgN/A
5:00 AM68 °FPassing clouds.12 mph88%30.07 "HgN/A
4:30 AM66 °FScattered showers. Passing clouds.10 mph94%30.07 "HgN/A
4:00 AM68 °FScattered showers. Passing clouds.10 mph83%30.07 "HgN/A
3:30 AM68 °FScattered showers. Passing clouds.8 mph83%30.04 "HgN/A
3:00 AM70 °FPassing clouds.7 mph78%30.04 "HgN/A
2:30 AM68 °FPassing clouds.2 mph83%30.04 "HgN/A
2:00 AM70 °FSprinkles. Passing clouds.9 mph78%30.07 "Hg5 mi
Weather by CustomWeather, © 2014

See weather overviewHow to use our weather pages